Regional Weather Roundup
Issued by NWS Dallas/Fort Worth, TX

Home | Current Version | Previous Version | Text Only | Print | Product List | Glossary On
Versions: 1 2 3 4 5 6 7 8 9 10 11 12 13 14 15 16 17 18 19 20 21 22 23 24 25 26 27 28 29 30 31 32 33 34 35 36 37 38 39 40 41 42 43 44 45 46 47 48 49 50
000
ASUS44 KFWD 122003
RWRFWD
NORTH TEXAS HOURLY WEATHER ROUNDUP
NATIONAL WEATHER SERVICE FORT WORTH TX
200 PM CST TUE DEC 12 2017

NOTE: "FAIR" INDICATES FEW OR NO CLOUDS BELOW 12,000 FEET WITH NO
SIGNIFICANT WEATHER AND/OR OBSTRUCTIONS TO VISIBILITY.

TXZ118-119-122100-
DALLAS/FORT WORTH METROPLEX

CITY           SKY/WX    TMP DP  RH WIND       PRES   REMARKS
DFW AIRPORT    SUNNY     56  24  29 NW14G21   30.32F
DALLAS LOVE    SUNNY     55  25  31 N14G20    30.34F
FTW MEACHAM    SUNNY     57  28  33 NW10      30.34F
DAL-EXECUTIVE  SUNNY     55  27  34 NW10      30.32F
FTW-ALLIANCE   SUNNY     56  26  31 NW10      30.33F
FTW-NAS-JRB    SUNNY     56  26  31 N14       30.35F
FTW-SPINKS     SUNNY     55  27  33 NW8G18    30.36F
ARLINGTON      SUNNY     54  25  32 NW13G21   30.34F
GRAND PRAIRIE  SUNNY     55  25  30 N12       30.36F
ADDISON        SUNNY     54  27  35 NW12G17   30.34F
MESQUITE       SUNNY     54  21  28 NW13      30.34F
LANCASTER      SUNNY     54  23  30 NW14      30.34F
$$

TXZ091>094-102>105-117-120-121-131>134-122100-
NORTH CENTRAL TEXAS

CITY           SKY/WX    TMP DP  RH WIND       PRES   REMARKS
SHRMAN/DENISON SUNNY     53  23  31 W13       30.33F
GAINESVILLE    SUNNY    N/A N/A N/A MISG        N/A
BOWIE          SUNNY     52  26  37 N6        30.35F
BRIDGEPORT     SUNNY     54  28  37 NW9       30.37F
DECATUR        SUNNY     54  26  34 NW9       30.33F
DENTON         SUNNY     54  26  34 N9G16     30.34F
MCKINNEY       SUNNY     54  23  30 N13G21    30.33F
BONHAM         SUNNY     52  11  19 NW14      30.32F
GREENVILLE     SUNNY     55  19  24 NW13      30.32F
ROCKWALL       SUNNY     53  23  31 NW10      30.33F
TERRELL        SUNNY     55  22  27 NW9       30.33F
WAXAHACHIE     SUNNY     54  27  34 NW12G20   30.35F
CLEBURNE       SUNNY     55  27  33 NW13G22   30.35F
GRANBURY       SUNNY     57  28  33 NW12G18   30.36F
$$

TXZ083>090-098>101-113>116-127>130-139>142-154-155-122100-
WESTERN NORTH TEXAS

CITY           SKY/WX    TMP DP  RH WIND       PRES   REMARKS
WICHITA FALLS  SUNNY     53  25  33 NW7       30.36F
WF-KICKAPOO    SUNNY     52  26  35 NW7       30.40F
VERNON         SUNNY     54  20  26 W7        30.37F
ABILENE        SUNNY     53  25  33 VRB5      30.38F
ABILENE-DYESS  SUNNY     54  24  31 NW7       30.38F
GRAHAM           N/A     55  28  35 NW8G16    30.35F
BRECKENRIDGE   SUNNY     55  27  33 N6G16     30.37F
CISCO          SUNNY     54  27  35 N10G16    30.38F
EASTLAND       SUNNY     53  26  35 NW10G18   30.37F
RANGER         SUNNY     54  28  37 W9G17     30.36F
MINERAL WELLS  SUNNY     56  26  31 N15       30.34F
STEPHENVILLE   MOSUNNY   56  26  32 N13G18    30.38F
COMANCHE       SUNNY     56  29  34 NW8       30.36F
BROWNWOOD      SUNNY     57  25  28 NW13      30.37F
COLEMAN        SUNNY     57  25  29 NW12G17   30.37F
$$

TXZ143>147-156>162-174-175-122100-
CENTRAL TEXAS

CITY           SKY/WX    TMP DP  RH WIND       PRES   REMARKS
WACO           SUNNY     57  25  29 NW10      30.34F
WACO-TSTC      SUNNY     57  23  26 NW10G21   30.33F
WACO-MCGREGOR  SUNNY     56  29  35 N9G21     30.34F
HILLSBORO      SUNNY     56  27  32 NW12G17   30.33F
CORSICANA      SUNNY     56  24  29 NW10G17   30.33F
MEXIA          SUNNY     56  23  27 NW10G21   30.31F
HEARNE         SUNNY     58  27  29 NW14      30.32F
CAMERON        SUNNY     59  27  29 N12G17    30.33F
TEMPLE         SUNNY     59  28  30 NW13G21   30.33F
KILLEEN        SUNNY     58  28  31 NW12G18   30.32F
KILLEEN-SKYLRK SUNNY     59  29  31 N12       30.33F
FORT HOOD      SUNNY     58  28  31 N13       30.29F
GATESVILLE     SUNNY     57  27  30 NW8G16    30.35F
HAMILTON       SUNNY     58  27  31 N14G21    30.35F
LAMPASAS       SUNNY     58  28  32 NW9G16    30.33F
$$

TXZ095>097-106>112-122>126-135>138-148>153-164>167-122100-
EAST TEXAS

CITY           SKY/WX    TMP DP  RH WIND       PRES   REMARKS
PARIS          SUNNY     52  19  27 NW13      30.30F
SULPHUR SPRNGS SUNNY     54  22  29 NW8       30.33F
MOUNT PLEASANT SUNNY     54  22  29 NW12G17   30.30F
GILMER         SUNNY     54  24  31 NW7G17    30.28F
MINEOLA        SUNNY     54  23  30 W8G17     30.30F
TYLER          SUNNY     56  20  24 NW12G17   30.29F
LONGVIEW       SUNNY     58  25  28 NW14      30.26F
MARSHALL       SUNNY     55  17  22 NW10G16   30.28F
ATHENS         SUNNY     52  19  28 N10G16    30.29F
PALESTINE      SUNNY     56  23  27 NW12      30.31F
JACKSONVILLE   SUNNY     56  26  31 NW10      30.29F
HENDERSON      SUNNY     56  23  27 N7        30.27F
CENTER         CLEAR     58  21  23 NW10G16   30.25F
NACOGDOCHES    SUNNY     59  25  27 N14       30.26F
LUFKIN         SUNNY     59  27  29 NW10      30.25F
$$

SUPPLEMENTAL OBSERVATIONS (NWS FORT WORTH AREA)

CITY           SKY/WX    TMP DP  RH WIND       PRES   REMARKS
$$

SUPPLEMENTAL OBSERVATIONS (NWS NORMAN AREA)

CITY           SKY/WX    TMP DP  RH WIND       PRES   REMARKS
GOODLETT         N/A     56  22  26 W10       30.35F
ODELL            N/A     54  26  34 W8        30.38F
CROWELL          N/A     55  24  30 N1        30.38F
KNOX CITY        N/A     57  22  26 NW3       30.39F
SEYMOUR          N/A     54  25  33 NW6       30.39F
$$

SUPPLEMENTAL OBSERVATIONS (NWS SAN ANGELO AREA)

CITY           SKY/WX    TMP DP  RH WIND       PRES   REMARKS
WEINERT          N/A     54  25  31 W8        30.39F
HASKELL          N/A     54  23  29 W6        30.39F
THROCKMORTON     N/A     54  28  36 NW7       30.39F
STAMFORD         N/A     53  25  33 N3        30.40F
CLYDE            N/A     53  24  32 N7        30.39F
$$

SUPPLEMENTAL OBSERVATIONS (NWS SHREVEPORT AREA)

CITY           SKY/WX    TMP DP  RH WIND       PRES   REMARKS
$$

SUPPLEMENTAL OBSERVATIONS ARE A COLLECTION OF AUTOMATED INSTRUMENTS
THAT ARE MAINTAINED BY A VARIETY OF FEDERAL AND STATE AGENCIES.
CERTAIN ELEMENTS...SUCH AS HUMIDITY VALUES AND SUSTAINED WIND
SPEEDS...MAY BE APPROXIMATED.




USA.gov is the U.S. government's official web portal to all federal, state and local government web resources and services.